Weather History for Yellowstone, WY

Change the Weather History Date:

Sunday, March 24, 2013

  Actual Average Record
Temperature  
Mean Temperature 3 °F 25 °F  
Max Temperature 22 °F 39 °F 50 °F (2004)
Min Temperature -17 °F 12 °F -17 °F (2013)
Degree Days  
Heating Degree Days 62 40  
Month to date heating degree days 1105 1032  
Since 1 July heating degree days 8972 8969  
Cooling Degree Days 0 0  
Month to date cooling degree days 0 0  
Year to date cooling degree days 0 0  
Moisture  
Dew Point -10 °F    
Average Humidity 56    
Maximum Humidity 83    
Minimum Humidity 28    
Precipitation  
Precipitation 0.00 in 0.05 in 0.11 in (2005)
Month to date precipitation 2.06 0.87  
Year to date precipitation 4.40 4.39  
Sea Level Pressure  
Sea Level Pressure 30.46 in    
Wind  
Wind Speed 2 mph (ENE)    
Max Wind Speed 10 mph    
Max Gust Speed 17 mph    
T = Trace of Precipitation, MM = Missing Value Source: NWS Daily Summary

Daily Weather History Graph

Daily Weather History Graph

Search for Another Location

Airport:

Trip Planner

Search our weather history database for the weather conditions in past years. The results will help you decide how hot, cold, wet, or windy it might be!

Date:

Astronomy

Mar. 24, 2013 Rise Set
Actual Time 7:16 AM MDT 7:39 PM MDT
Civil Twilight 6:47 AM MDT 8:08 PM MDT
Nautical Twilight 6:13 AM MDT 8:43 PM MDT
Astronomical Twilight 5:38 AM MDT 9:18 PM MDT
Moon 5:06 PM MDT (3/24) 5:34 AM MDT (3/24)
Length of Visible Light 13h 21m
Length of Day
12h 22m
Waxing Gibbous, 92% of the Moon is Illuminated
Mar 24
Waxing Gibbous
Mar 27
Full
Apr 2
Last Quarter
Apr 10
New
Apr 18
First Quarter

Hourly Weather History & Observations

Time (MDT) Temp. Windchill Dew Point Humidity Pressure Visibility Wind Dir Wind Speed Gust Speed Precip Events Conditions
12:56 AM -9.0 °F - -13.0 °F 83% 30.45 in - Calm Calm - N/A   Unknown
1:56 AM -11.0 °F - -17.0 °F 75% 30.43 in - Calm Calm - N/A   Unknown
2:56 AM -14.1 °F - -18.9 °F 79% 30.42 in - Calm Calm - N/A   Unknown
3:56 AM -14.1 °F - -18.9 °F 79% 30.43 in - Calm Calm - N/A   Unknown
4:56 AM -15.0 °F - -20.0 °F 78% 30.43 in - Calm Calm - N/A   Unknown
5:56 AM -13.0 °F - -18.0 °F 78% 30.43 in - Calm Calm - N/A   Unknown
6:56 AM -11.0 °F - -16.1 °F 78% 30.42 in - Calm Calm - N/A   Unknown
7:56 AM -11.9 °F - -17.0 °F 78% 30.48 in - Calm Calm - N/A   Unknown
8:56 AM -9.9 °F -21.5 °F -13.0 °F 86% 30.53 in - ESE 4.6 mph - N/A   Unknown
9:56 AM -8.0 °F -16.9 °F -11.9 °F 83% 30.52 in - East 3.5 mph - N/A   Unknown
10:56 AM -4.0 °F -14.6 °F -9.0 °F 79% 30.50 in - ESE 4.6 mph - N/A   Unknown
11:56 AM 1.0 °F -8.7 °F -5.1 °F 75% 30.51 in - East 4.6 mph - N/A   Unknown
12:56 PM 7.0 °F - -0.9 °F 70% 30.46 in - Calm Calm - N/A   Unknown
1:56 PM 15.1 °F 7.7 °F -2.9 °F 45% 30.42 in - Variable 4.6 mph - N/A   Unknown
2:56 PM 19.9 °F 10.1 °F -8.0 °F 29% 30.40 in - NNE 8.1 mph 17.3 mph N/A   Unknown
3:56 PM 21.0 °F 14.6 °F -7.1 °F 29% 30.37 in - Variable 4.6 mph - N/A   Unknown
4:56 PM 21.9 °F 12.5 °F -5.1 °F 30% 30.38 in - North 8.1 mph - N/A   Unknown
5:56 PM 19.9 °F 13.4 °F -4.0 °F 35% 30.38 in - Variable 4.6 mph - N/A   Unknown
6:56 PM 17.1 °F 11.7 °F -4.0 °F 39% 30.41 in - Variable 3.5 mph - N/A   Unknown
7:56 PM 8.1 °F - -0.9 °F 67% 30.47 in - Calm Calm - N/A   Unknown
8:56 PM 1.9 °F - -4.0 °F 76% 30.51 in - Calm Calm - N/A   Unknown
9:56 PM -2.0 °F - -8.0 °F 76% 30.54 in - Calm Calm - N/A   Unknown
10:56 PM -4.0 °F - -9.0 °F 79% 30.54 in - Calm Calm - N/A   Unknown
11:56 PM -9.0 °F - -14.1 °F 79% 30.55 in - Calm Calm - N/A   Unknown